Miscellaneous Local Product
Issued by NWS Hastings, NE

Home | Current Version | Previous Version | Graphics & Text | Print | Product List | Glossary On
Versions: 1 2 3 4 5 6 7 8 9 10 11 12 13 14 15 16 17 18 19 20 21 22 23 24 25 26 27 28 29 30 31 32 33 34 35 36 37 38 39 40 41 42 43 44 45 46 47 48 49 50
000
AXUS43 KGID 240302
MISGRI

GID CWA HOURLY WEATHER ROUNDUP
NATIONAL WEATHER SERVICE HASTINGS NE
1000 PM CDT THU APR 23 2015

NOTE: "FAIR" INDICATES FEW OR NO CLOUDS BELOW 12,000 FEET WITH NO
SIGNIFICANT WEATHER AND/OR OBSTRUCTIONS TO VISIBILITY.

...SOUTH CENTRAL NEBRASKA...

CITY           SKY/WX    TMP DP  RH WIND       PRES   REMARKS
GRAND ISLAND   MOCLDY    57  38  48 SE12      29.86R
HASTINGS       CLOUDY    58  40  51 S13       29.85R
KEARNEY        CLOUDY    57  41  54 SE17      29.84R
ORD            CLOUDY    56  40  55 SE10      29.80R
YORK           CLOUDY    59  34  38 S12       29.87S
AURORA         CLOUDY    58  37  46 SE14      29.86R
LEXINGTON      CLOUDY    60  46  61 SE15      29.79R
HOLDREGE       CLOUDY    57  44  60 S15       29.82S
HEBRON         CLOUDY    55  36  47 SE8       29.87S

...NEBRASKA PANHANDLE...

CITY           SKY/WX    TMP DP  RH WIND       PRES   REMARKS
CHADRON        CLOUDY    55  43  63 MISG      29.64R
ALLIANCE       CLOUDY    50  39  66 SE8       29.68R
SCOTTSBLUFF    PTCLDY    56  40  55 SE9       29.70R
SIDNEY         MOCLDY    49  42  77 SE13      29.75R

...WESTERN AND NORTH CENTRAL NEBRASKA...

CITY           SKY/WX    TMP DP  RH WIND       PRES   REMARKS
VALENTINE      CLOUDY    60  45  57 S15       29.71R
AINSWORTH      CLOUDY    58  41  53 S21       29.73S
ONEILL         MOCLDY    59  38  45 S13       29.80R
BROKEN BOW     CLOUDY    57  42  57 S16       29.79R
IMPERIAL       CLOUDY    52  47  83 NE17      29.78R
NORTH PLATTE   NOT AVBL
MCCOOK         CLOUDY    60  49  66 SE12      29.79R

...EASTERN NEBRASKA...

CITY           SKY/WX    TMP DP  RH WIND       PRES   REMARKS
NORFOLK        CLOUDY    60  33  36 SE15      29.84S
SO SIOUX CITY  PTCLDY    55  31  39 SE12      29.88F
TEKAMAH        CLOUDY    57  34  41 SE13      29.89S
COLUMBUS       CLOUDY    59  32  36 SE10      29.88R
ALBION         MOCLDY    57  32  38 SE12      29.83R
OMAHA EPPLEY   CLOUDY    60  33  36 SE16      29.91R
OFFUTT AFB     MOCLDY    57  34  41 SE12      29.90S
MILLARD        CLOUDY    60  34  37 SE12      29.90R
LINCOLN        MOCLDY    58  31  35 SE13      29.89S
NEBRASKA CITY  MOCLDY    54  29  38 S5        29.92R
BEATRICE       CLOUDY    58  35  41 SE9       29.89R
FALLS CITY     CLOUDY    55  33  43 SE8       29.92R

...NORTHERN KANSAS...

CITY           SKY/WX    TMP DP  RH WIND       PRES   REMARKS
GOODLAND       MOCLDY    54  50  86 E6        29.79R
HILL CITY      MOCLDY    59  49  69 S10       29.83R
NORTON         CLOUDY    57  45  62 SE10      29.80R
SMITH CENTER   CLOUDY    55  43  62 SE14      29.84S
BELOIT         MOCLDY    55  43  62 SE13      29.85S
HAYS           CLOUDY    57  46  67 SE15      29.84R
RUSSELL        CLOUDY    57  49  74 SE14      29.83R
CONCORDIA      MOCLDY    57  40  52 SE18G25   29.87R
SALINA         MOCLDY    57  43  59 SE13      29.89R
TOPEKA         CLOUDY    60  35  39 SE10      29.93F



USA.gov is the U.S. government's official web portal to all federal, state and local government web resources and services.